EHI
0 0 0 0 0 0 0 0 0 0 0 0 0 1 1 1 0 0 1 2 1 0 0 1 2 4 7 9 8 6 5 5 4 4 4 4 3 4 4 4 3 2 1 1
0 0 0 0 0 0 0 0 0 0 0 0 0 1 2 2 1 0 1 2 1 0 1 2 3 5 9 11 10 9 8 8 6 5 5 4 4 4 5 6 5 4 4 4
0 0 0 0 0 0 0 0 0 0 0 0 0 1 2 2 1 0 1 2 1 0 1 2 5 7 9 12 13 13 13 13 11 9 8 7 6 6 7 8 8 7 7 6
0 0 0 0 0 0 0 0 0 0 0 0 0 1 1 1 1 1 3 2 1 0 0 1 4 7 10 12 14 18 20 20 18 15 12 9 7 6 7 8 8 8 7 7
0 0 0 0 0 0 0 0 0 0 0 0 0 0 0 1 2 3 5 5 3 2 1 1 3 6 9 11 14 21 27 27 24 21 17 13 10 8 7 7 7 7 6 6
0 0 0 0 0 0 0 0 0 0 0 0 0 0 1 2 3 4 6 8 7 6 5 4 4 5 8 10 13 19 28 32 30 25 20 16 13 10 8 7 6 6 6 6
0 0 0 0 0 0 0 0 0 0 0 0 0 1 2 3 4 4 5 7 8 9 9 8 7 8 11 14 16 20 27 32 31 26 21 18 16 13 10 8 7 6 6 6
0 0 0 0 0 0 0 0 0 0 0 0 0 1 2 3 4 3 4 5 6 7 8 8 9 11 15 19 21 23 28 31 30 26 22 20 18 15 12 10 8 7 6 5
0 0 0 0 0 0 0 0 0 0 0 0 0 0 1 1 2 4 6 6 4 4 6 8 10 12 15 20 22 24 27 28 27 26 23 21 19 17 15 14 12 10 8 7
0 0 0 0 0 0 0 0 0 0 0 0 0 0 1 1 2 5 7 7 5 4 6 9 11 11 12 14 18 21 24 24 23 24 23 20 19 18 17 16 15 15 13 12
0 0 0 0 0 0 0 0 0 0 0 0 0 0 1 2 3 5 7 7 7 6 7 11 15 14 11 10 14 18 21 20 18 20 21 19 16 16 15 15 15 17 18 18
0 0 0 0 0 0 0 0 0 0 0 0 0 0 1 1 2 4 8 9 9 9 10 13 18 21 18 14 15 19 19 18 17 18 21 20 17 15 14 13 14 17 21 22
0 0 0 0 0 0 0 0 0 0 0 0 0 0 0 0 1 4 9 11 11 12 12 14 19 24 25 24 23 24 23 19 17 18 21 22 22 20 17 14 14 18 23 25
0 0 0 0 0 0 0 0 0 0 0 0 0 0 0 0 1 4 8 10 12 12 13 15 18 21 24 27 27 27 25 20 17 17 19 21 23 22 20 16 16 20 23 25
0 0 0 0 0 0 0 0 0 0 0 0 0 1 1 1 3 6 9 11 12 11 11 13 16 17 19 22 23 23 22 19 16 16 17 17 18 18 18 17 20 23 24 24
0 0 0 0 0 0 0 0 0 0 0 0 0 2 3 5 7 11 13 14 13 11 9 12 15 16 15 15 17 18 19 20 18 17 17 17 16 16 16 18 22 25 25 24
0 0 0 0 0 0 0 0 0 0 1 1 1 2 7 11 14 17 19 20 18 15 12 14 16 16 15 13 15 16 18 20 20 19 20 20 20 19 18 19 21 25 25 25
0 0 0 0 0 0 0 0 0 1 2 2 2 4 10 16 21 24 26 26 23 20 17 18 19 18 17 16 15 15 16 17 19 20 21 23 24 24 22 19 19 21 22 22
0 0 0 0 0 0 0 0 0 1 2 3 4 8 12 16 21 26 30 30 26 22 20 19 20 20 19 18 15 14 14 15 16 17 19 21 23 24 23 19 18 19 19 19
0 0 0 0 0 0 0 1 1 1 2 4 9 14 15 15 18 23 27 28 24 20 17 15 15 16 17 17 14 13 13 13 13 14 15 17 18 19 20 19 18 20 20 18
0 0 0 0 0 0 0 1 2 2 3 6 12 17 17 16 19 21 21 19 16 14 11 8 8 10 11 12 11 11 11 11 11 12 14 15 14 15 15 16 19 21 20 19
0 0 0 0 0 0 2 3 4 4 6 8 10 13 15 17 18 17 15 12 9 7 6 4 4 5 7 8 9 10 10 9 11 13 14 13 13 12 12 14 17 20 20 19
0 0 1 1 1 2 4 5 5 6 8 9 8 9 12 14 14 12 11 9 6 5 5 4 4 4 6 7 8 9 8 8 9 11 12 12 11 11 12 14 17 20 21 19
0 1 2 3 3 5 6 6 6 6 8 8 7 7 8 10 11 11 10 8 7 6 6 5 5 6 7 8 8 7 6 7 8 8 9 10 10 10 12 15 18 21 23 21
1 1 3 5 5 7 7 7 7 7 7 6 5 4 4 6 9 11 11 10 10 8 6 5 7 9 10 9 7 6 6 7 8 7 8 8 9 10 13 14 16 18 20 19
2 2 4 5 6 7 8 8 7 7 7 5 4 2 2 4 7 10 13 13 12 9 6 6 8 10 11 9 8 7 7 8 8 7 7 7 9 11 13 14 13 13 13 12
Wind_Speed
6 8 8 5 4 4 3 3 2 2 1 2 2 2 4 5 5 6 7 8 8 8 8 7 7 6 6 6 5 5 4 4 3 3 2 3 2 2 1 1 2 1 1 1
8 9 5 3 4 5 6 5 3 2 2 3 2 2 3 5 5 5 6 7 8 8 8 8 8 7 7 7 6 6 6 5 4 3 2 1 1 1 1 1 2 1 1 0
10 3 4 7 7 7 6 5 2 1 1 5 4 5 5 5 5 5 5 6 7 8 9 9 9 9 8 8 7 6 6 6 5 4 3 3 2 2 2 2 1 1 0 1
8 5 7 9 8 8 6 2 3 4 6 3 4 4 4 5 5 5 5 6 7 8 9 9 10 9 9 9 8 7 6 6 5 5 3 3 2 1 1 1 1 1 0 0
7 7 8 9 7 6 3 1 4 5 7 6 5 6 3 5 4 4 4 4 5 7 8 9 9 8 8 8 8 8 7 6 6 5 4 3 2 2 2 1 2 1 1 0
6 5 6 6 5 4 4 4 5 6 7 7 3 6 1 2 1 2 3 3 4 5 6 7 8 8 7 8 8 8 7 7 6 6 5 4 3 2 1 1 1 2 1 1
9 9 6 5 7 8 8 8 6 6 6 3 2 4 2 4 2 1 2 3 4 4 5 6 7 8 8 8 8 8 8 7 7 7 6 5 4 4 3 3 2 2 1 1
10 11 9 7 7 6 8 9 7 6 4 2 4 3 4 5 3 3 3 4 5 5 4 4 5 6 7 8 8 8 8 8 7 6 6 5 5 4 3 3 2 2 1 1
7 7 7 5 5 7 7 8 7 8 7 6 3 2 4 4 4 4 4 4 4 4 4 4 4 5 6 7 8 8 8 7 7 6 6 5 4 3 2 2 2 2 1 1
5 6 7 6 7 4 6 6 6 8 6 7 5 5 2 3 3 4 4 4 4 4 4 3 3 3 4 6 6 6 7 6 6 6 5 4 4 4 3 2 2 1 2 1
8 8 8 9 9 7 7 8 7 7 7 7 5 1 5 2 3 3 4 4 4 4 3 3 3 3 4 5 6 6 6 6 6 5 5 4 4 4 3 3 3 3 3 3
7 8 7 8 4 4 7 8 8 8 6 7 6 1 6 3 3 3 4 4 4 4 4 4 3 3 4 5 5 5 5 5 5 5 4 4 4 4 4 4 3 3 3 3
6 8 8 9 10 8 8 8 9 10 7 7 8 2 7 4 4 4 4 4 4 4 4 4 4 4 3 3 3 4 4 4 4 5 4 4 4 4 4 4 4 3 3 3
6 8 9 8 5 7 9 9 10 11 8 8 8 4 3 3 3 3 3 4 4 4 3 3 3 3 3 3 2 2 2 3 3 4 4 4 4 3 3 3 4 4 3 3
7 8 8 7 5 6 8 9 10 11 10 10 7 5 2 2 3 3 4 4 4 4 3 3 2 2 2 2 1 1 1 2 2 3 3 3 3 3 3 3 4 3 4 4
5 6 7 8 6 7 9 9 9 10 9 9 8 5 2 2 3 4 4 4 3 3 2 2 2 1 1 1 1 1 1 2 2 3 3 3 3 3 3 3 3 3 3 3
6 6 8 8 7 8 11 9 9 9 7 8 8 2 4 4 3 3 4 4 3 2 1 1 1 0 0 0 1 1 1 2 2 3 3 3 3 3 3 2 2 2 2 3
6 7 7 7 7 12 2 1 5 6 6 5 2 2 3 3 3 2 3 3 2 2 1 1 0 0 0 0 1 1 1 1 1 2 2 2 2 2 2 2 2 2 2 2
5 6 7 7 10 9 5 4 4 6 5 3 3 3 4 4 4 4 3 2 2 1 1 1 1 1 1 1 0 0 0 1 1 2 2 2 2 2 2 2 2 2 2 2
5 7 8 8 10 10 2 4 1 5 7 2 1 3 4 5 4 3 3 2 2 2 2 2 2 2 2 2 1 1 1 1 2 2 2 2 2 3 3 3 3 2 2 3
7 7 10 10 9 5 4 2 4 8 0 2 1 2 3 3 2 3 3 2 2 2 2 2 2 2 2 2 1 1 2 2 3 2 2 2 3 3 3 3 3 3 3 3
6 7 7 8 9 3 4 2 2 3 3 0 1 2 3 3 2 2 3 2 1 1 1 2 2 2 2 2 1 2 2 3 2 2 2 2 2 3 2 3 3 3 3 4
4 3 3 3 2 4 2 1 2 2 1 0 1 2 3 3 2 2 1 1 0 0 1 1 1 2 2 2 2 2 2 3 2 2 2 2 3 2 3 3 4 3 4 4
3 1 3 2 1 0 0 1 0 1 1 1 1 2 2 2 2 2 1 1 1 1 1 1 2 2 2 3 2 3 2 2 1 1 2 2 3 3 3 3 3 3 3 3
1 2 3 4 2 2 2 1 1 1 1 1 1 1 2 2 2 2 1 1 1 1 1 1 2 3 3 3 3 3 2 2 2 2 2 3 3 2 2 2 2 4 2 2
3 4 5 3 2 3 2 1 1 1 0 0 1 1 1 1 2 2 2 1 2 2 2 2 3 3 3 2 2 3 3 3 3 3 3 3 2 2 2 2 2 1 2 1
Wind_Direction
198 219 217 212 246 292 269 266 264 73 98 237 217 179 157 158 178 184 182 178 178 176 169 170 173 169 164 161 161 168 168 156 167 163 170 157 149 149 137 116 75 50 33 69
205 218 222 221 227 239 240 243 224 146 151 256 243 227 178 171 184 190 190 188 187 180 171 172 177 176 174 170 171 173 175 169 178 160 173 159 133 152 125 83 82 54 42 310
225 191 186 208 208 220 231 243 266 280 204 216 242 215 178 176 187 190 198 196 192 191 182 177 182 183 181 178 179 177 176 172 178 168 170 160 160 178 153 143 135 92 11 342
227 204 204 217 219 232 226 233 259 250 254 244 261 269 164 168 182 193 198 198 197 190 188 183 183 185 185 182 177 176 175 176 177 180 179 175 171 158 132 147 106 129 138 315
202 203 211 222 219 237 266 288 261 267 271 269 236 268 134 162 196 195 192 198 200 193 187 186 185 185 185 181 178 172 173 175 175 179 175 186 186 181 165 154 123 230 155 200
222 202 227 233 221 215 201 212 228 244 252 248 246 270 178 121 224 187 165 175 182 179 178 179 179 179 183 182 182 174 171 175 176 180 181 187 194 198 180 186 163 211 183 185
202 194 194 211 204 193 217 232 235 228 225 227 153 258 49 53 43 94 148 155 154 159 166 169 173 177 180 182 182 175 172 176 179 182 187 187 195 193 193 213 201 243 235 190
205 193 187 203 225 219 222 243 256 268 264 227 186 240 72 61 72 106 127 138 140 147 152 161 169 173 179 179 179 178 175 178 179 180 185 187 195 202 197 206 233 236 271 277
218 195 171 192 219 238 222 234 270 272 265 267 228 164 131 95 101 111 118 123 126 131 134 146 163 175 176 177 179 180 177 174 177 180 183 187 196 209 208 204 226 245 258 236
242 217 178 179 198 209 257 246 241 252 260 258 226 220 174 134 116 119 123 123 118 122 121 120 142 159 163 169 170 175 174 173 176 180 188 183 192 200 204 214 213 239 255 268
234 224 191 190 212 209 201 220 240 256 267 269 259 142 70 120 126 133 133 126 115 112 106 105 106 130 149 157 159 164 163 165 172 179 184 191 193 201 205 215 222 227 237 238
223 233 215 201 192 242 225 224 225 236 242 258 272 109 87 99 114 111 117 114 104 107 104 99 98 106 126 144 153 161 164 168 174 175 180 190 198 205 216 220 225 224 229 233
202 227 213 197 190 197 216 222 235 245 244 245 253 162 109 104 104 106 115 119 115 109 101 98 94 94 102 121 141 157 171 173 177 180 186 188 199 201 213 225 225 224 229 239
235 235 244 248 236 193 208 217 233 242 241 242 250 239 157 129 132 131 134 133 127 121 113 104 100 91 98 103 120 153 170 172 178 182 187 193 207 210 213 221 223 223 227 231
234 231 239 260 259 237 232 227 225 238 253 259 255 247 223 145 145 153 146 141 137 128 120 108 99 92 93 111 127 147 171 188 190 189 197 205 217 218 220 223 220 219 226 232
233 233 228 235 234 232 238 236 229 233 243 248 253 248 60 97 135 149 150 152 145 141 134 123 113 107 103 119 152 181 192 194 205 210 210 212 223 224 223 222 221 224 230 244
208 220 231 232 217 232 230 226 227 225 235 249 250 226 136 150 153 164 162 160 152 143 132 132 138 133 162 238 208 220 224 217 215 218 219 218 221 227 232 234 225 230 237 238
221 226 234 235 221 236 202 124 233 233 232 243 263 133 144 147 141 149 152 146 129 108 79 59 34 324 261 263 234 220 207 214 226 233 240 233 226 230 233 231 230 237 245 245
219 224 238 235 235 234 186 189 218 227 224 231 230 173 147 141 151 147 113 100 96 76 47 33 13 11 16 1 22 201 244 222 232 241 244 244 236 228 224 229 234 231 235 245
187 221 237 235 248 246 178 122 243 245 222 148 212 178 173 191 226 139 104 88 71 59 49 37 33 29 27 359 339 244 255 257 259 258 257 244 236 236 236 232 237 237 235 240
190 207 231 235 242 244 73 130 212 233 48 94 198 183 191 210 347 83 114 94 71 60 54 43 31 22 15 354 337 268 266 270 280 280 266 255 241 240 240 237 235 237 237 235
223 216 222 235 239 215 76 181 244 11 23 104 151 166 167 135 108 111 120 121 111 77 60 39 23 7 349 343 335 312 306 309 299 286 273 264 256 256 242 240 243 241 244 238
244 293 282 280 340 48 36 17 23 354 337 74 158 162 166 166 161 149 145 145 148 41 23 7 356 344 328 325 324 321 335 336 322 304 289 288 270 262 259 247 239 239 240 253
171 257 243 237 204 287 288 299 341 346 344 28 151 164 174 182 182 192 203 214 241 284 305 320 320 319 328 327 322 316 322 320 297 289 293 282 271 260 258 262 251 248 248 255
253 220 223 233 248 244 219 272 322 19 33 78 155 178 199 192 199 220 243 253 269 277 287 293 311 316 318 320 317 319 324 309 290 282 277 272 266 263 260 257 276 271 269 285
229 241 247 257 247 263 284 298 279 234 195 164 192 195 211 226 232 253 272 284 277 275 284 288 296 299 309 310 310 316 313 298 284 273 278 281 281 269 261 251 242 326 277 223